SPEUR EPPO-EPKS

Flight info

Callsign SPEUR
Flight time 0h -15m
Altitude 1500
Route EPPO DCT EPPOF DCT EPPOU DCT EPKSR DCT EPKS
Aircraft BE36/L-SRL/L

Departure

Time 2026-04-23 16:14
Airport Poznań-Ławica Airport (EPPO)

Arrival

Time 2026-04-23 15:58
Airport Krzesiny Military Air Base (EPKS)
Time Latitude Longitude Altitude Speed Heading
2026-04-23 15:58 52.41744 16.82745 298 ft 0 kts 184°
2026-04-23 16:07 52.41730 16.82743 300 ft 6 kts 184°
2026-04-23 16:07 52.41682 16.82745 298 ft 7 kts 151°
2026-04-23 16:08 52.41669 16.82833 299 ft 12 kts 97°
2026-04-23 16:08 52.41646 16.82997 297 ft 15 kts 102°
2026-04-23 16:08 52.41619 16.83190 297 ft 19 kts 103°
2026-04-23 16:08 52.41591 16.83403 295 ft 18 kts 103°
2026-04-23 16:09 52.41570 16.83613 294 ft 19 kts 89°
2026-04-23 16:09 52.41563 16.83824 293 ft 16 kts 93°
2026-04-23 16:09 52.41610 16.83952 292 ft 13 kts 29°
2026-04-23 16:09 52.41696 16.84018 292 ft 9 kts 22°
2026-04-23 16:10 52.41708 16.84026 292 ft 0 kts 20°
2026-04-23 16:11 52.41714 16.84030 292 ft 4 kts 20°
2026-04-23 16:11 52.41759 16.84057 292 ft 9 kts 20°
2026-04-23 16:12 52.41822 16.84059 294 ft 8 kts 315°
2026-04-23 16:12 52.41836 16.84020 293 ft 0 kts 287°
2026-04-23 16:12 52.41837 16.84012 293 ft 8 kts 287°
2026-04-23 16:13 52.41914 16.83613 299 ft 60 kts 288°
2026-04-23 16:13 52.42151 16.82110 695 ft 65 kts 285°
2026-04-23 16:13 52.42295 16.81350 879 ft 73 kts 288°
2026-04-23 16:14 52.42428 16.80500 1113 ft 80 kts 288°
2026-04-23 16:14 52.42519 16.79589 1410 ft 82 kts 287°
2026-04-23 16:14 52.42414 16.78559 1510 ft 104 kts 250°
2026-04-23 16:14 52.41827 16.77733 1513 ft 124 kts 210°
2026-04-23 16:15 52.40928 16.77851 1519 ft 143 kts 150°
2026-04-23 16:15 52.40385 16.79133 1517 ft 138 kts 94°
2026-04-23 16:15 52.40242 16.80703 1514 ft 140 kts 94°
2026-04-23 16:15 52.40089 16.82264 1517 ft 138 kts 94°
2026-04-23 16:16 52.39930 16.83799 1514 ft 136 kts 100°
2026-04-23 16:16 52.39432 16.85109 1517 ft 139 kts 136°
2026-04-23 16:16 52.38582 16.85843 1507 ft 139 kts 172°
2026-04-23 16:16 52.37629 16.85988 1509 ft 138 kts 171°
2026-04-23 16:17 52.36804 16.86778 1501 ft 139 kts 134°
2026-04-23 16:17 52.36333 16.88112 1494 ft 135 kts 103°
2026-04-23 16:17 52.36049 16.89568 1491 ft 135 kts 101°
2026-04-23 16:17 52.35757 16.91026 1489 ft 134 kts 102°
2026-04-23 16:18 52.35463 16.92471 1482 ft 134 kts 101°
2026-04-23 16:18 52.35174 16.93924 1480 ft 135 kts 102°
2026-04-23 16:18 52.34887 16.95367 1481 ft 136 kts 103°
2026-04-23 16:18 52.34591 16.96844 1490 ft 136 kts 102°
2026-04-23 16:19 52.34296 16.98326 1482 ft 137 kts 102°
2026-04-23 16:19 52.33997 16.99792 1488 ft 134 kts 103°
2026-04-23 16:19 52.33717 17.01214 1482 ft 130 kts 102°
2026-04-23 16:19 52.33429 17.02624 1478 ft 131 kts 102°
2026-04-23 16:20 52.33145 17.04042 1479 ft 130 kts 103°
2026-04-23 16:20 52.32825 17.05434 1490 ft 132 kts 121°
2026-04-23 16:20 52.32099 17.06318 1496 ft 130 kts 153°
2026-04-23 16:20 52.31262 17.06554 1483 ft 117 kts 209°
2026-04-23 16:21 52.30710 17.05793 1442 ft 97 kts 253°
2026-04-23 16:21 52.30602 17.04737 1226 ft 96 kts 289°
2026-04-23 16:21 52.30885 17.03774 1037 ft 93 kts 306°
2026-04-23 16:21 52.31186 17.02847 905 ft 92 kts 301°
2026-04-23 16:22 52.31481 17.01950 781 ft 90 kts 302°
2026-04-23 16:22 52.31743 17.01137 670 ft 76 kts 300°
2026-04-23 16:22 52.31964 17.00396 563 ft 70 kts 297°
2026-04-23 16:22 52.32193 16.99731 470 ft 65 kts 301°
2026-04-23 16:23 52.32408 16.99074 385 ft 66 kts 299°
2026-04-23 16:23 52.32623 16.98414 311 ft 65 kts 300°
2026-04-23 16:23 52.32832 16.97773 272 ft 60 kts 299°
2026-04-23 16:23 52.33003 16.97221 264 ft 47 kts 301°
2026-04-23 16:24 52.33139 16.96865 266 ft 26 kts 296°
2026-04-23 16:24 52.33200 16.96640 266 ft 20 kts 297°
2026-04-23 16:24 52.33263 16.96449 267 ft 20 kts 300°
2026-04-23 16:24 52.33330 16.96240 266 ft 21 kts 298°
2026-04-23 16:25 52.33397 16.96029 264 ft 22 kts 296°
2026-04-23 16:25 52.33420 16.95832 264 ft 18 kts 244°
2026-04-23 16:25 52.33384 16.95739 264 ft 0 kts 234°
2026-04-23 16:25 52.33383 16.95737 264 ft 1 kts 234°
2026-04-23 16:26 52.33370 16.95708 263 ft 7 kts 234°
2026-04-23 16:26 52.33334 16.95610 264 ft 13 kts 246°
2026-04-23 16:26 52.33274 16.95463 264 ft 18 kts 236°
2026-04-23 16:26 52.33198 16.95273 264 ft 22 kts 238°
2026-04-23 16:27 52.33129 16.95096 265 ft 13 kts 238°
2026-04-23 16:27 52.33102 16.94986 264 ft 9 kts 279°
2026-04-23 16:27 52.33105 16.94920 264 ft 0 kts 256°